Theta_e
310 310 309 309 310 309 309 309 310 310 311 312 312 312 312 311 311 311 312 312 311 312 312 312 311 312 309 301 299 306 317 315 314 319 308 307 310 309 305 309 311 309 311 314 315 315 315
309 308 309 309 308 308 308 308 308 310 311 311 311 311 311 311 310 311 310 311 312 311 311 311 311 311 303 291 309 309 311 309 304 313 310 307 305 311 308 308 308 311 310 311 313 313 314
308 309 308 308 308 308 308 308 308 310 310 310 310 310 311 311 310 310 310 310 311 312 312 313 312 307 299 296 309 311 310 308 307 304 302 308 310 307 307 303 308 307 304 307 307 309 307
309 309 309 309 309 308 308 308 309 309 309 309 308 311 311 311 311 311 311 311 311 311 313 312 312 306 294 306 310 307 309 308 310 309 306 305 313 308 305 306 303 301 301 297 304 304 305
308 309 309 309 308 308 308 308 308 308 309 309 311 311 310 310 311 311 311 311 310 311 311 311 306 300 293 307 302 308 309 304 306 308 307 305 306 306 304 300 298 299 295 296 299 303 303
309 309 308 308 308 308 308 308 308 308 309 309 310 311 311 310 310 310 311 310 309 308 307 307 304 295 297 296 304 306 310 307 303 303 301 300 301 299 299 298 291 293 293 296 296 302 301
309 309 309 308 308 308 308 308 308 308 308 308 309 310 310 311 310 310 308 302 300 298 299 295 295 295 297 302 305 302 306 305 303 299 294 297 294 293 295 298 300 300 298 297 300 302 300
307 307 308 308 309 309 309 309 309 309 310 310 309 309 310 310 310 308 303 296 297 297 290 298 297 298 301 303 295 299 304 298 297 292 296 293 291 297 300 299 297 296 295 295 299 302 301
307 306 308 309 309 309 309 310 310 309 309 310 310 309 309 310 309 303 300 298 304 303 291 294 298 297 298 300 295 296 301 299 295 292 293 292 295 298 297 297 295 295 294 295 295 300 302
307 307 308 309 309 309 309 309 309 310 310 310 310 310 310 309 302 301 298 303 305 304 286 288 293 297 299 299 294 302 301 299 296 292 293 294 298 295 295 294 297 293 298 297 296 295 293
306 308 308 309 309 309 309 309 309 309 310 310 309 309 310 308 301 298 300 305 305 299 273 289 294 304 300 295 297 298 303 299 294 294 294 291 293 293 293 294 298 295 301 298 297 296 296
307 307 307 308 308 308 309 309 308 309 309 309 309 308 308 304 302 303 305 305 301 284 273 286 293 291 292 294 295 297 297 300 300 296 295 295 298 296 296 298 299 301 299 299 299 297 289
307 307 307 308 308 308 309 308 309 309 309 309 308 307 305 304 297 304 304 299 283 276 287 285 287 290 289 289 291 292 293 291 290 288 289 293 293 297 298 295 299 300 296 289 287 288 288
308 307 308 308 308 308 308 308 308 308 309 308 307 304 302 304 305 304 300 289 275 281 283 290 289 289 286 289 288 288 289 290 292 293 292 289 286 294 297 295 294 296 296 291 285 287 289
307 308 308 308 308 308 308 308 308 308 308 307 304 302 301 303 303 303 293 279 279 284 287 285 287 284 284 287 287 286 287 290 293 292 287 290 290 297 297 299 298 295 293 299 293 294 291
307 307 308 308 309 308 308 308 308 308 307 305 298 297 298 304 305 299 287 281 284 289 289 288 282 285 281 284 284 285 285 290 290 294 296 293 288 296 297 298 299 298 300 290 293 285 284
307 307 307 308 308 308 308 308 308 308 306 303 297 293 298 304 303 293 282 283 286 291 291 286 284 284 284 283 286 285 284 288 291 292 295 295 293 293 296 293 293 294 294 295 295 293 287
307 306 307 306 307 307 307 307 308 307 305 301 296 288 299 305 288 289 285 287 290 289 292 289 289 287 285 286 285 285 285 288 293 292 289 293 293 290 292 298 300 297 296 296 290 289 292
306 306 306 307 307 306 306 307 307 307 304 298 290 291 300 300 283 284 287 287 289 288 289 288 287 288 289 285 282 286 288 293 294 291 288 292 291 287 290 294 297 295 296 297 298 297 291
305 305 306 306 305 304 305 306 306 307 304 298 292 286 292 295 291 286 283 285 285 291 290 290 289 290 287 286 288 284 286 290 294 292 295 294 290 289 288 290 295 292 294 296 296 292 292
305 305 305 306 306 305 304 304 306 306 304 298 292 288 291 283 286 285 285 285 284 285 290 291 288 287 287 284 285 285 288 290 293 295 294 291 285 289 291 291 293 294 294 294 293 295 292
304 305 305 305 305 304 304 305 305 305 303 297 291 290 292 288 288 285 285 285 285 286 286 286 286 288 288 285 287 285 288 289 289 292 292 292 286 289 288 293 293 292 295 295 295 295 295
305 305 304 305 304 304 305 305 306 306 304 295 295 298 292 288 286 284 285 285 285 287 289 290 289 288 287 289 293 293 293 293 292 289 290 290 288 287 287 290 291 289 294 296 296 297 297
305 304 304 304 304 304 305 305 306 307 306 301 298 296 289 284 285 285 286 287 286 287 286 290 291 289 292 297 297 296 294 293 292 292 294 290 288 289 285 289 283 295 301 301 298 299 300
304 303 304 304 305 305 305 306 307 307 307 301 300 295 290 284 287 286 287 286 287 289 289 289 292 294 296 293 288 287 288 289 290 293 292 293 291 287 284 287 292 296 298 297 297 296 300
303 303 303 304 305 305 305 305 307 308 307 303 300 300 295 288 286 290 287 288 286 286 289 291 295 298 295 289 287 281 280 284 284 287 294 293 293 289 287 284 285 294 299 302 301 293 300
304 303 303 303 304 305 305 305 306 307 308 305 301 302 296 289 291 292 288 287 291 289 287 290 291 292 296 288 284 283 283 288 282 284 285 286 287 285 286 286 290 298 300 302 293 293 301
303 303 303 304 304 305 305 305 306 307 308 305 302 301 297 291 292 294 294 290 291 290 286 291 290 291 289 285 285 286 284 287 287 289 286 287 286 284 287 285 286 301 300 294 298 302 302
303 303 303 303 304 304 304 305 306 307 308 308 300 301 301 294 293 299 297 298 297 296 291 292 290 290 292 288 289 288 287 287 287 284 292 286 291 289 290 292 297 301 300 303 303 301 302
Wind_Speed
16 16 16 17 17 16 17 17 17 16 16 16 17 16 16 17 17 18 18 18 18 17 15 14 14 12 6 4 10 6 15 15 6 7 18 21 21 19 18 15 17 15 19 20 19 20 18
17 16 17 17 17 17 18 18 18 18 17 18 17 18 17 18 18 18 18 18 17 17 16 15 12 12 5 12 8 6 12 10 4 4 7 14 9 15 13 13 21 12 21 23 21 19 22
17 16 17 17 17 18 18 18 18 18 18 18 17 18 18 18 19 19 18 18 17 20 20 16 11 8 14 24 7 9 16 4 3 3 10 13 17 10 5 5 10 11 14 15 14 18 17
16 16 16 16 16 17 18 19 19 19 20 20 19 17 19 20 20 20 20 20 20 22 22 17 11 7 11 8 11 18 17 11 14 16 7 10 14 15 5 2 3 10 6 14 12 16 10
17 16 17 18 18 18 18 18 19 20 20 20 18 17 18 20 20 21 22 21 25 15 8 5 5 5 12 8 8 14 17 15 7 14 11 7 10 10 5 11 8 8 11 16 12 11 12
17 17 17 17 17 17 17 18 18 19 20 20 19 18 18 20 21 21 20 23 15 2 5 6 2 4 7 3 4 10 6 17 9 9 9 11 9 11 15 16 21 18 11 10 13 10 9
19 18 18 18 19 18 18 19 19 19 19 20 20 19 19 18 20 18 15 5 2 2 2 7 7 8 16 10 11 8 2 6 10 16 17 19 13 27 29 29 13 18 20 22 16 7 8
18 18 18 19 19 19 20 20 21 22 21 20 19 20 20 18 19 15 4 4 5 3 12 15 23 24 25 13 11 14 8 10 12 19 21 11 30 29 23 21 24 23 23 23 14 11 7
18 18 18 19 20 20 22 21 21 22 21 20 19 19 19 18 18 1 5 3 4 7 6 14 11 11 10 9 15 22 14 9 11 20 29 27 36 21 23 21 25 29 29 24 19 4 8
16 16 17 18 18 19 22 22 22 22 22 21 20 17 16 16 1 4 6 2 7 3 5 7 4 6 5 6 8 16 19 12 13 23 22 22 25 25 22 28 23 26 23 23 17 8 12
16 18 18 17 18 19 21 22 23 22 21 20 19 19 16 10 7 4 3 5 9 3 6 3 3 1 2 6 15 4 18 20 21 12 16 18 18 28 26 29 26 21 15 17 15 12 12
16 17 18 18 20 21 20 20 22 22 21 21 20 20 17 5 4 7 4 7 2 4 8 3 3 8 6 1 14 9 2 21 13 15 20 16 9 22 30 18 23 11 12 12 7 8 15
17 18 19 19 20 21 20 20 22 23 22 22 23 22 12 4 3 1 5 3 3 5 6 3 6 11 12 10 11 18 8 14 14 17 18 16 17 3 14 21 20 23 14 8 10 11 10
18 19 19 19 20 20 21 21 22 23 23 22 22 13 3 3 2 4 2 3 5 1 6 10 12 13 8 9 7 22 15 9 21 17 9 14 12 21 17 17 19 27 23 10 14 13 8
20 19 21 21 21 21 21 21 22 22 22 22 12 3 2 3 3 3 3 4 2 3 6 11 13 9 3 7 6 6 12 11 10 21 9 11 17 11 19 13 25 24 23 16 10 1 4
20 21 22 21 21 22 22 22 23 23 23 19 4 3 4 6 4 1 2 4 4 5 9 6 6 4 5 10 8 3 5 5 12 14 14 7 7 12 19 20 23 20 22 13 11 13 9
20 21 21 21 21 21 21 22 22 22 21 13 3 2 3 4 2 1 1 3 6 9 8 4 5 6 5 9 8 5 4 4 4 13 14 10 7 10 18 21 23 12 23 8 9 7 7
21 21 21 23 21 21 21 21 23 20 17 5 3 2 4 2 1 1 3 6 6 8 4 6 7 10 7 5 7 6 7 7 4 6 8 7 7 7 23 13 19 22 17 22 12 9 9
20 21 21 21 21 21 20 20 22 20 9 3 5 3 2 2 4 3 7 7 6 6 8 6 5 4 5 4 5 7 5 4 7 4 4 8 6 12 8 9 15 28 22 21 8 5 16
21 21 21 21 21 22 21 20 20 20 8 2 2 4 2 2 1 7 9 6 7 9 5 7 8 6 6 6 6 7 8 5 6 5 7 7 5 11 9 5 2 21 24 21 20 13 9
21 22 22 22 21 21 20 20 20 18 10 1 3 2 2 4 4 9 9 6 10 10 5 6 1 3 6 5 10 8 5 9 7 5 4 3 5 7 15 14 10 6 21 26 25 19 17
22 22 22 22 22 21 19 18 18 16 8 2 2 3 1 5 6 8 4 3 9 7 7 8 6 14 11 7 11 17 14 7 3 2 1 4 3 10 11 11 9 10 8 21 24 22 17
21 21 22 22 23 21 19 17 16 15 5 1 1 2 2 5 5 5 3 4 9 15 9 8 14 15 13 11 7 9 12 13 12 3 3 2 0 6 10 3 6 11 15 12 13 18 23
21 22 23 23 22 21 20 18 17 14 6 2 2 1 3 5 5 8 10 15 14 13 10 15 15 6 3 17 18 16 18 19 17 14 12 4 3 2 4 2 10 2 11 12 13 9 21
22 22 22 23 22 21 20 19 18 14 8 2 1 1 2 5 7 13 10 12 14 12 13 10 8 9 13 9 5 6 3 5 10 12 16 14 3 2 4 6 3 6 11 6 4 6 13
24 23 22 23 23 22 21 20 19 14 9 2 3 3 2 4 3 6 13 12 9 7 6 5 10 9 5 1 3 3 3 4 1 4 13 14 7 4 2 5 12 10 14 5 2 8 14
23 24 24 23 22 23 23 20 19 16 12 3 2 4 2 4 5 5 5 6 5 3 5 7 8 5 2 2 3 3 3 5 3 7 8 6 4 9 6 3 2 13 15 2 10 5 15
23 23 23 22 22 23 22 21 19 18 13 3 2 6 3 4 9 9 7 8 7 5 3 6 7 1 3 3 3 3 3 2 4 2 4 5 6 5 4 4 4 19 6 3 7 9 12
22 23 23 23 22 22 22 21 19 17 14 5 3 3 4 4 7 11 13 19 19 19 5 3 4 6 3 3 2 3 3 2 4 2 2 2 2 1 4 3 6 11 4 4 8 11 13
Wind_Direction
14 12 8 6 1 1 360 355 352 349 349 350 348 344 342 338 333 331 329 325 321 317 317 315 314 320 333 241 241 339 354 360 7 153 197 197 194 199 213 209 224 216 228 240 250 269 265
8 6 4 3 359 356 354 351 349 346 349 345 343 342 339 336 334 329 323 321 317 313 303 301 302 304 267 247 241 316 350 345 296 212 196 212 209 226 243 224 214 211 229 243 252 263 270
7 3 1 359 357 354 351 346 345 341 346 342 340 338 335 333 330 328 322 316 314 302 296 288 283 276 255 243 269 292 299 275 325 347 238 230 237 242 232 214 233 243 238 240 238 245 255
358 354 348 353 350 353 348 347 339 346 341 339 338 332 332 331 329 326 320 316 309 301 290 277 260 257 257 248 266 265 259 274 232 239 245 262 236 247 239 346 136 208 206 228 226 231 244
358 358 6 2 360 355 351 343 344 340 336 336 332 330 332 329 327 325 320 318 310 310 296 228 160 208 269 299 265 258 241 245 229 208 216 260 221 224 207 230 225 213 230 217 236 228 245
4 6 5 2 358 354 348 343 339 337 334 334 331 334 331 331 329 326 321 317 306 149 94 131 178 209 254 303 271 283 234 222 218 164 177 203 195 209 216 202 217 217 227 236 233 226 223
6 5 5 2 357 353 346 341 337 334 333 332 331 330 329 329 327 327 323 331 277 195 310 259 248 256 289 256 270 253 249 163 209 193 197 189 197 218 210 215 237 254 234 238 233 227 245
7 4 1 358 355 349 343 342 340 337 332 327 325 326 326 326 326 335 350 31 70 325 295 263 250 244 252 267 298 256 230 199 193 200 192 175 222 218 223 218 223 229 234 237 247 259 248
7 4 3 356 351 347 346 343 340 341 335 330 323 318 319 324 315 81 308 259 18 346 259 280 236 248 242 221 234 271 193 213 210 209 192 197 224 211 206 211 214 224 229 236 245 255 244
2 354 0 355 350 347 346 346 344 341 338 332 328 321 321 333 79 311 302 208 327 302 283 268 214 240 197 210 238 233 215 215 215 212 204 226 224 199 204 217 208 230 227 240 240 233 256
2 358 359 352 352 348 344 344 342 340 335 332 332 331 324 337 297 280 306 322 326 207 293 68 131 105 137 212 321 238 210 210 230 191 190 209 199 212 207 209 203 233 221 215 228 247 275
1 358 354 351 350 346 343 341 339 336 334 332 329 328 327 308 276 263 311 324 234 202 247 312 85 337 335 329 347 304 194 233 231 245 223 223 210 202 220 202 203 205 195 163 183 235 244
355 351 349 348 346 343 341 340 338 337 334 332 330 323 318 290 288 80 3 291 176 235 327 23 339 327 328 6 352 351 323 197 215 201 217 214 222 209 202 200 191 195 195 182 209 207 240
356 351 346 346 345 343 343 342 340 337 336 332 327 332 345 264 314 280 276 185 229 307 281 351 339 325 311 21 31 328 353 338 215 244 218 204 190 210 191 199 189 191 189 216 217 223 232
355 351 347 347 343 342 343 342 340 337 338 336 329 352 359 343 265 189 246 214 285 331 360 339 323 302 338 2 339 358 360 338 23 228 279 222 227 177 183 180 182 198 212 213 240 104 224
350 348 345 342 340 340 341 342 338 339 344 346 356 340 351 360 121 191 255 279 284 323 331 316 296 343 336 345 314 23 350 346 334 350 339 287 247 206 188 192 191 186 176 188 212 210 218
345 344 342 340 340 338 339 340 336 340 346 349 29 10 3 354 242 102 209 280 286 283 306 277 280 294 305 315 333 315 211 317 2 347 328 269 278 171 176 200 184 179 189 194 199 226 209
344 342 342 342 338 337 340 341 339 347 347 0 350 10 352 348 43 336 297 305 307 290 306 281 261 267 259 300 300 291 286 164 105 45 332 304 297 247 206 197 196 198 194 194 197 179 219
343 343 342 341 341 341 342 341 341 349 24 330 350 303 331 328 6 350 326 302 272 304 339 312 303 301 282 294 306 301 317 93 126 89 24 344 241 224 171 193 206 202 203 204 211 179 203
343 344 342 341 342 342 343 342 342 346 12 75 348 346 341 41 119 335 335 309 319 323 313 337 291 301 307 300 243 265 283 310 190 266 154 329 275 264 213 209 355 206 208 204 207 217 187
342 346 343 340 339 342 343 344 338 344 352 358 13 20 349 320 334 330 320 300 314 349 343 314 320 355 339 295 307 248 252 316 293 145 126 57 281 292 275 276 286 290 220 210 214 216 222
342 348 343 340 340 342 342 343 333 340 346 56 353 339 274 285 283 325 326 291 331 332 310 308 290 321 324 288 282 293 305 310 275 5 138 139 316 323 265 231 252 273 258 226 217 214 218
341 346 343 340 342 342 337 335 322 327 357 39 300 274 285 283 315 320 290 324 308 318 292 275 310 310 296 304 308 287 281 273 264 271 278 238 294 321 219 103 307 263 238 220 226 217 221
342 347 345 341 342 341 335 330 322 319 344 253 209 256 275 284 299 297 287 299 296 305 288 295 297 268 287 321 299 265 249 250 250 236 225 222 207 260 287 216 231 215 28 211 199 207 229
341 345 346 342 340 339 334 329 322 321 326 201 157 214 241 282 290 290 284 315 301 294 285 274 300 273 295 293 280 292 194 214 228 215 208 225 218 241 266 221 323 117 25 6 215 132 15
337 340 345 344 340 338 335 332 323 320 318 176 200 174 265 289 245 296 302 289 298 318 289 251 311 306 304 287 291 298 297 309 174 141 193 192 234 266 269 236 213 38 342 327 246 165 7
333 335 338 341 341 338 337 335 324 321 313 211 228 187 228 259 262 254 282 300 291 269 274 296 335 321 283 320 261 261 284 300 269 162 169 178 183 223 219 272 275 353 327 211 191 38 341
329 331 332 335 337 336 336 335 326 316 305 183 246 177 199 264 279 267 269 267 267 244 252 336 315 86 298 317 283 330 262 343 289 39 154 167 166 191 202 223 219 1 11 48 2 327 333
326 327 330 331 334 332 333 334 328 315 306 285 246 159 187 243 268 296 281 266 259 259 263 218 270 313 287 316 310 303 307 281 295 206 331 155 285 168 236 42 349 349 309 355 340 332 337